Location: Breux
(46.3269°N, 3.2993°E)
Time: 19:32:58
(UTC+00:00)

Cosmos 1814 Rocket - Pass Details

Date: 09 April 2020
Orbit: 744 x 787 km, 74.1° (Epoch: 23 May)

Event Time Altitude Azimuth Distance (km) Brightness Sun altitude
Rises 21:38:53 0° 335° (NNW) 3,289 8.4 -28.5°
Reaches altitude 10° 21:41:18 10° 333° (NNW) 2,358 7.4 -28.7°
Enters shadow 21:46:10 63° 281° (W) 879 4.3 -29.2°
